STARLINK-38066, 69758

Orbit data source: Space-Track

STARLINK-38066, 69758 is a payload satellite owned by SpaceX/Seattle (US) in SSO that was launched on Thu, 02 Jul 2026 UTC via an FALCON 9 launch vehicle from the Air Force Western Test Range (AFWTR). Payload-class satellites include a variety of spacecraft equipped with specific instruments for various scientific and technological missions. These include communications satellites like Starlink; space stations such as the ISS; scientific satellites like the Hubble; Earth observation satellites from companies like Planet Labs, Umbra, and HawkEye 360; GPS; miniature CubeSats for education and research; and military/defense satellites.

Loading next visibility...
Identifier
69758, 2026-150V
Orbit
SSO
Country
Flag of USUS
Related business
Manufacturer
SpaceX/Seattle
Mission
Operational spacecraft
Bus & Motor
STARLINK V2MO, Unknown motor
Mass
575 kg wet, ~530 kg dry
Launch date (UTC)
2026-07-02 (3 weeks ago)
Launch vehicle
FALCON 9
Launch site
Air Force Western Test Range (AFWTR)
Object type
Payload
Rocket body
Debris
Shape & HBR
Unknown shape, 17.7 m
Radar Cross Section
Large (>1 m²)

Expand to show TLE details & history
Last TLE update: 15 hours ago

TLE from 15 hours ago
0 STARLINK-38066
1 69758U 26150V   26202.58335648 -.00048257  00000-0 -32421-3 0  9996
2 69758  97.2841  41.3566 0001542  82.6918 249.3408 15.75209556  4323
Epoch: 2026-07-21T14:00Z
TLE epoch observation values (Epoch: 2026-07-21T14:00:01.999Z)
Latitude
-28.00521°
Longitude
-104.12673°
Altitude
355.037 km
Speed
7.694 km/s
True Right ascension
03h 00m 55s
True Declination
-27° 51' 16"
Sunlit
Object was in daylight at epoch
Visualization orbit readout
Latitude
Unknown
Longitude
Unknown
Altitude
Unknown
Speed
Unknown
Apparent Right ascension
Unknown
Apparent Declination
Unknown
Sunlit
N/A
Visualization observer readout
Local Sidereal Time
17:43:55
Azimuth
Unknown
Elevation
Unknown
Doppler factor
Unknown
Orbital elements
Apogee altitude
341.958 km
Perigee altitude
339.886 km
Semi-major axis
6,719.059 km
Eccentricity
0.00015
Inclination
97.2841°
RAAN
41.3566°
Arg. of periapsis
82.6918°
True anomaly
249.32427°
Mean anomaly
249.3408°
Eccentric anomaly
249.33253°
Mean motion
3.94076 °/min
Orbital period
91.35 mins
BSTAR
-0.00032421
Loading maneuver chart data...
Computing Atmospheric mass density...
Loading historical data...
Loading historical data...
Loading historical data...
Loading historical data...
Loading historical data...
Loading historical data...
Loading historical data...

Documentation

Showing up to 5 results
|